Location: Tauranga
(37.6860°S, 176.1670°E)
Time: 14:01:12
(UTC+13:00)

Cosmos 1939 Rocket - Pass Details

Date: 24 January 2019
Orbit: 534 x 583 km, 97.4° (Epoch: 13 October)

Event Time Altitude Azimuth Distance (km) Brightness Sun altitude
Rises 21:24:09 0° 168° (SSE) 2,843 6.8 -9.4°
Reaches altitude 10° 21:26:20 10° 167° (SSE) 1,937 5.9 -9.7°
Maximum altitude 21:30:33 85° 77° (ENE) 601 2.9 -10.4°
Drops below altitude 10° 21:34:38 11° 349° (N) 1,874 5.3 -11.1°
Sets 21:36:51 0° 348° (NNW) 2,797 6.2 -11.5°
